Temperature
5 6 6 6 6 7 7 8 8 10 12 13 14 14 14 15 15 15 15 15 16 15 15 15 15 15 15 16 16 15 15 15 14 14 13 13 12 12 12 12 11 11 11 11
4 6 6 6 7 7 8 8 9 10 11 13 14 14 14 14 14 14 14 15 15 15 15 15 15 15 15 15 15 15 15 14 14 13 13 13 12 12 12 12 11 11 11 10
3 5 6 6 7 8 8 9 10 10 11 12 13 13 13 13 14 14 13 14 14 14 14 14 14 14 14 14 15 14 14 14 14 13 13 13 12 12 12 12 11 11 10 10
3 4 4 6 8 8 9 9 9 10 10 11 12 12 13 13 13 13 13 13 13 13 14 14 14 14 14 14 14 14 14 14 13 13 13 13 12 12 12 11 11 10 10 9
2 3 5 7 8 8 8 8 8 9 9 10 11 12 12 12 12 12 12 13 13 13 14 14 14 14 14 13 13 13 13 14 13 13 13 12 12 12 11 11 10 10 9 9
2 3 4 6 7 8 8 7 7 8 8 8 9 9 10 11 11 11 12 12 13 13 13 13 13 13 13 13 13 13 13 13 13 13 13 12 12 12 11 10 10 9 9 8
2 2 4 6 7 7 6 6 7 7 7 7 7 8 9 9 10 10 11 12 12 12 12 13 13 13 13 13 13 13 13 13 12 12 12 12 12 11 10 10 9 9 8 8
2 2 3 6 6 5 5 6 7 7 7 7 7 8 8 9 9 9 10 11 11 11 11 11 12 12 12 12 12 12 12 12 12 12 12 11 11 11 10 9 9 8 8 7
3 4 5 6 6 6 6 6 6 6 6 6 7 7 7 8 8 8 9 10 10 10 10 11 11 11 11 12 12 12 12 11 12 11 11 11 10 10 9 9 8 8 7 7
3 4 5 6 6 6 6 6 6 6 6 6 6 6 6 7 7 7 8 8 9 9 9 10 10 10 11 11 11 11 11 11 11 11 10 10 10 9 9 9 9 8 7 7
2 4 5 6 6 6 6 5 5 5 5 5 5 5 6 6 6 7 7 7 8 8 9 9 9 10 10 10 10 10 10 10 10 10 10 9 9 9 9 9 9 9 8 7
2 4 4 4 5 5 5 5 4 4 4 4 5 5 5 5 6 6 6 7 7 8 8 8 9 9 9 10 10 10 10 10 10 9 9 9 8 8 7 8 7 7 7 7
4 4 4 4 4 4 4 4 4 4 4 4 4 4 5 5 5 5 6 6 6 7 7 8 8 8 9 9 9 10 10 10 9 9 9 9 8 8 7 6 6 6 6 6
3 3 3 3 3 3 3 3 3 3 3 3 4 4 4 4 5 5 5 6 6 6 6 7 7 7 8 8 8 9 9 9 9 9 9 8 8 8 7 7 6 5 5 5
2 2 2 2 2 2 2 2 2 2 3 3 3 3 3 4 4 4 5 5 5 5 6 6 6 7 7 7 8 8 8 8 8 8 8 8 7 7 7 6 6 6 5 4
1 1 1 1 1 1 1 1 1 2 2 2 2 2 3 3 3 4 4 5 5 5 5 6 6 6 6 6 7 7 8 8 8 7 7 7 6 6 6 6 5 5 5 4
-0 -0 0 0 0 0 0 0 1 1 1 1 1 2 2 2 3 3 3 4 4 5 5 5 5 5 5 6 6 7 7 6 6 6 6 6 6 6 6 5 5 5 4 4
-1 -1 -1 -1 -1 -1 -0 -0 -0 0 0 1 1 1 1 2 2 2 3 3 4 4 4 5 5 4 4 5 5 6 6 6 6 6 6 6 6 6 5 5 5 4 3 3
-2 -2 -2 -2 -2 -1 -1 -1 -1 -1 -0 -0 0 1 1 1 2 2 2 3 3 3 4 4 4 4 4 4 5 5 5 5 5 5 5 5 5 5 4 4 4 3 3 2
-3 -3 -3 -3 -2 -2 -2 -1 -1 -1 -1 -1 -0 0 0 1 1 1 2 2 2 3 3 3 3 3 3 4 4 5 5 5 5 5 5 4 4 4 4 3 3 3 2 2
-4 -4 -4 -4 -3 -3 -2 -2 -1 -1 -1 -1 -1 -0 -0 0 0 1 1 1 1 2 2 2 2 2 3 3 4 4 4 4 4 4 4 4 3 3 3 3 2 2 2 1
-5 -5 -5 -4 -4 -3 -3 -2 -2 -2 -1 -1 -1 -1 -1 -1 -0 -0 0 0 1 1 1 1 1 2 2 3 3 3 4 4 4 3 3 3 3 3 2 2 2 1 1 1
-6 -5 -5 -5 -4 -4 -3 -3 -3 -2 -2 -1 -1 -1 -1 -1 -1 -1 -1 -0 -0 0 0 1 1 1 2 2 2 3 3 3 3 3 3 2 2 2 2 1 1 1 0 -0
-6 -6 -6 -5 -5 -4 -4 -4 -3 -3 -2 -2 -2 -1 -1 -1 -1 -1 -1 -1 -1 -0 -0 -0 0 1 1 2 2 2 2 2 2 2 2 1 1 1 1 0 0 -0 -0 -1
-7 -6 -6 -6 -5 -5 -5 -4 -4 -3 -3 -3 -2 -2 -2 -2 -1 -1 -1 -1 -1 -1 -1 -1 -0 -0 0 1 1 1 1 1 1 1 1 1 0 0 -0 -0 -1 -1 -1 -1
-7 -7 -7 -6 -6 -5 -5 -5 -4 -4 -4 -4 -3 -3 -3 -2 -2 -2 -2 -2 -2 -2 -2 -1 -1 -1 -0 0 0 0 0 0 0 -0 -0 -0 -0 -1 -1 -1 -1 -2 -2 -2
-8 -7 -7 -6 -6 -6 -5 -5 -5 -5 -4 -4 -4 -4 -4 -3 -3 -3 -3 -3 -3 -3 -2 -2 -1 -1 -1 -1 -1 -1 -1 -1 -1 -1 -1 -1 -1 -1 -1 -2 -2 -2 -3 -3
Wind_Speed
12 11 9 11 13 14 14 13 10 12 14 12 8 3 2 2 1 3 4 6 7 7 7 7 8 8 9 9 10 10 12 12 13 12 12 11 11 11 10 10 10 10 9 9
11 10 9 12 14 16 17 17 17 16 14 8 6 2 1 2 2 2 3 4 5 6 7 8 9 9 9 9 9 10 11 11 11 11 12 12 11 11 10 10 10 9 9 9
7 9 8 10 11 13 13 14 14 16 13 7 5 4 1 2 3 2 2 3 5 6 7 8 9 10 10 10 9 10 10 11 11 12 12 12 11 11 11 11 10 9 9 9
6 6 8 6 4 6 9 9 8 10 8 7 6 5 3 1 1 1 1 2 3 4 4 5 7 8 8 9 10 10 10 11 11 12 12 11 12 12 11 9 10 9 9 9
4 6 8 6 4 5 7 7 6 7 7 7 8 5 3 3 4 2 2 3 3 3 3 3 6 9 10 10 10 10 11 11 12 12 12 12 12 11 9 9 9 8 9 9
5 5 6 3 6 6 5 6 5 5 5 7 5 3 5 7 6 5 4 2 0 2 2 3 5 8 10 10 11 11 11 11 11 12 13 13 12 11 9 9 9 8 8 8
9 7 6 5 6 4 2 3 6 5 5 5 4 5 7 8 7 5 5 4 2 1 3 3 5 7 9 10 11 10 9 9 10 11 11 11 10 9 10 10 9 9 8 7
6 7 6 3 3 0 3 5 6 6 6 7 8 8 7 7 6 5 5 4 2 0 1 3 5 7 8 9 8 9 10 10 10 10 10 10 11 10 10 11 10 9 8 7
5 6 6 5 4 4 4 6 6 6 8 8 8 8 8 8 6 5 5 4 2 1 1 3 5 7 8 7 8 10 11 10 10 10 9 10 12 12 11 10 9 9 8 7
7 8 9 8 6 5 6 7 7 7 8 8 8 9 8 8 6 6 5 4 2 2 3 4 4 5 6 7 9 11 11 11 10 11 10 9 8 9 10 10 10 9 8 8
10 10 9 8 6 6 7 7 9 9 8 8 9 9 9 8 7 6 6 4 3 4 5 5 5 5 6 8 10 11 11 11 11 10 10 9 7 6 7 7 10 10 9 9
10 9 8 10 9 10 9 9 9 9 10 10 9 9 9 8 7 6 6 5 4 5 5 5 5 5 7 8 10 12 11 11 10 9 9 9 9 7 8 7 10 10 10 9
12 11 11 12 11 10 10 10 9 9 10 11 10 8 9 8 7 6 6 5 5 5 4 4 5 6 7 8 10 11 12 11 10 10 10 10 10 10 9 8 10 11 12 13
10 10 12 10 10 9 10 10 10 10 10 10 9 8 8 8 7 6 6 6 5 4 5 5 5 6 7 8 9 10 10 11 11 10 10 10 10 9 9 10 8 6 8 12
11 11 11 11 11 11 10 10 10 10 10 9 8 7 8 8 8 7 6 5 4 5 5 6 6 6 6 7 9 10 10 9 9 9 9 9 9 9 9 9 9 8 7 8
10 10 10 11 12 11 11 10 10 11 9 9 8 8 8 7 7 6 5 4 5 6 6 6 7 6 6 8 9 8 8 12 11 10 10 9 9 10 9 9 9 9 8 8
10 11 10 11 11 12 11 11 11 11 10 10 9 8 7 6 6 5 5 4 4 5 5 6 6 6 7 8 9 8 9 11 13 10 9 9 9 10 10 9 9 8 7 8
10 11 11 11 11 12 12 11 11 11 10 10 9 7 7 7 7 6 4 2 2 2 3 5 6 7 7 8 8 8 9 9 9 9 9 9 9 9 9 9 9 9 7 8
10 11 12 12 12 12 12 11 10 9 9 8 8 7 7 7 5 4 3 4 5 4 3 6 9 8 7 8 9 8 9 10 9 9 8 11 10 9 9 9 9 9 8 7
10 10 11 12 12 11 11 9 9 8 8 7 6 6 5 5 3 3 3 3 2 3 5 7 8 7 7 9 10 8 10 10 11 10 9 9 9 9 8 9 9 9 8 7
12 12 11 11 11 10 9 8 8 8 7 5 5 5 4 3 2 3 4 3 2 5 6 8 7 6 7 8 10 8 9 10 10 10 10 9 9 9 9 8 8 8 7 7
11 11 11 11 10 9 7 6 6 6 4 3 3 4 3 3 3 3 2 2 4 7 6 6 6 8 10 10 7 8 9 9 9 9 9 9 9 9 8 8 8 7 7 7
11 10 11 10 9 8 7 5 4 3 3 3 3 4 4 4 4 4 4 3 5 8 6 5 9 13 13 8 7 8 9 9 8 8 8 8 8 8 8 8 7 7 7 6
10 10 9 9 6 5 4 3 2 0 2 2 2 4 5 4 3 3 4 7 8 9 7 9 14 15 13 7 8 8 8 8 8 8 8 8 8 7 7 7 7 6 6 7
9 8 7 7 5 3 2 1 2 3 4 4 4 5 4 3 4 5 6 7 11 11 8 11 14 14 9 8 8 8 8 8 8 8 8 8 8 7 7 7 7 6 6 6
8 7 6 5 4 2 1 1 2 2 3 4 5 5 5 6 7 7 7 8 10 11 8 7 8 9 8 8 8 9 8 9 9 8 8 7 8 7 7 7 7 6 6 5
7 6 4 3 3 2 1 2 3 3 4 5 6 6 6 7 8 8 9 9 8 8 7 7 7 7 8 8 9 9 8 8 8 7 7 7 7 6 7 7 6 5 5 5
Wind_Direction
279 278 263 253 249 242 236 231 235 250 254 261 270 258 189 173 160 143 151 159 165 168 167 166 167 169 169 169 167 166 169 173 177 175 171 170 171 172 172 171 170 167 167 170
280 275 271 267 249 238 237 235 239 256 264 265 271 277 158 162 167 169 172 178 177 172 171 173 174 172 168 168 166 164 169 173 169 166 166 167 168 166 164 165 165 164 168 169
275 283 287 260 241 230 230 232 234 245 257 285 296 306 262 193 193 189 201 199 194 188 182 180 178 172 171 167 161 164 168 168 166 165 166 165 162 162 166 167 163 164 167 166
276 279 242 249 268 241 234 240 248 255 272 290 292 292 294 6 9 254 221 222 207 193 187 178 168 162 159 157 160 163 166 167 166 165 164 160 160 165 165 161 163 165 165 164
253 261 268 267 262 250 241 251 277 277 285 310 314 305 285 351 342 317 284 240 207 195 184 166 162 157 153 158 161 164 170 171 169 165 162 161 164 164 158 155 157 158 160 160
242 254 252 300 325 309 246 249 317 306 310 321 333 288 295 332 331 329 332 335 189 145 139 149 159 153 157 166 167 173 174 171 166 163 163 164 163 156 149 149 150 149 151 157
234 246 267 308 323 346 210 291 330 324 324 322 296 282 307 322 326 328 329 336 354 135 156 169 158 156 166 171 178 174 163 161 160 160 161 158 151 147 146 144 144 147 145 144
223 230 245 327 359 330 313 331 333 338 332 320 311 309 310 313 318 324 330 335 340 324 173 164 161 163 175 183 174 157 153 154 155 155 152 150 147 147 148 148 148 148 143 139
227 246 283 303 295 296 315 322 326 331 326 326 321 315 312 308 308 306 305 299 285 238 199 177 173 174 183 180 158 151 151 153 152 148 147 149 151 152 152 154 155 155 155 155
266 269 285 288 302 310 320 318 320 319 317 317 313 310 306 303 298 293 291 285 269 238 207 202 195 192 185 166 155 154 155 154 150 149 147 147 150 155 158 162 161 159 161 161
271 278 288 283 293 302 305 315 318 317 313 309 305 303 302 300 294 288 283 274 250 224 218 212 198 191 174 162 156 157 156 153 150 150 148 146 142 148 156 164 167 164 168 165
262 274 280 290 305 309 310 308 307 306 306 303 294 290 293 292 289 282 275 270 251 232 222 211 192 185 174 167 162 159 158 156 154 152 149 145 137 115 95 120 132 138 143 146
264 278 280 283 291 296 298 297 299 297 294 295 293 288 288 287 283 275 266 256 241 225 216 205 192 185 178 171 167 166 163 160 156 154 153 152 150 145 134 104 104 120 131 137
272 278 277 278 284 291 291 293 294 290 284 282 285 286 287 285 283 273 260 253 241 220 208 200 193 190 180 170 165 163 160 158 156 157 155 156 156 153 149 146 140 124 125 135
273 273 275 284 285 284 282 284 286 285 284 285 284 283 281 278 275 271 262 251 235 215 205 193 189 187 174 166 163 160 158 157 153 151 151 151 148 146 144 143 141 137 129 132
277 275 273 275 277 280 280 278 278 280 282 283 283 281 279 275 274 272 260 237 213 208 201 189 188 182 166 160 158 156 155 150 150 150 149 149 148 147 146 146 146 149 152 150
276 274 272 274 276 278 276 274 274 276 278 280 279 276 273 271 273 271 263 242 214 208 195 182 176 164 157 158 155 153 149 149 146 146 150 152 151 150 150 149 151 152 154 158
275 274 274 275 276 277 276 273 272 272 272 275 273 265 260 256 254 255 248 215 172 162 163 157 152 147 148 149 148 148 148 148 149 148 146 147 146 145 146 147 149 147 146 152
287 282 280 278 276 273 271 269 268 268 269 266 259 254 254 251 244 235 201 175 170 168 160 145 142 141 142 144 142 142 141 141 139 140 140 142 140 142 144 146 147 148 149 151
302 296 291 286 281 274 270 268 265 264 262 254 245 240 240 238 219 196 171 169 174 155 143 139 135 136 138 142 137 140 142 143 142 142 141 143 144 144 145 144 145 146 149 153
306 303 300 296 290 282 275 269 264 261 257 237 223 219 219 215 175 156 147 143 116 122 134 135 134 134 134 136 131 136 139 140 141 143 143 143 143 142 142 142 143 146 149 150
307 305 302 300 296 290 281 271 262 258 244 216 196 182 171 163 147 131 119 136 138 132 129 129 128 131 134 130 130 133 133 133 135 137 139 141 143 144 143 143 144 146 148 149
309 308 306 301 295 291 287 278 266 241 203 187 181 171 164 162 155 148 138 127 133 128 122 125 131 130 124 120 125 127 127 127 129 133 136 137 138 140 141 142 143 145 147 147
313 313 311 307 301 295 292 299 303 115 126 123 133 140 140 138 119 96 112 128 127 117 116 125 127 124 117 115 116 117 118 120 121 123 126 127 129 132 135 139 141 142 143 143
313 313 313 314 312 303 298 351 66 81 90 94 91 94 102 110 120 120 119 122 122 115 116 122 119 113 109 109 110 110 111 113 116 120 121 125 129 131 133 135 136 138 141 143
316 317 317 314 312 313 332 94 102 101 106 104 93 88 90 97 105 111 113 110 109 108 107 107 108 104 104 106 105 105 106 110 109 109 115 118 121 124 126 128 129 135 139 141
320 325 330 343 350 358 40 80 93 96 102 109 102 94 97 101 103 104 104 105 104 101 98 96 96 99 101 102 101 100 100 101 103 106 109 111 115 118 122 124 127 131 135 138
Height
1390 1385 1384 1382 1381 1380 1380 1378 1377 1366 1360 1354 1350 1347 1347 1349 1351 1352 1354 1357 1359 1362 1366 1370 1373 1377 1381 1386 1391 1396 1401 1406 1411 1416 1421 1426 1431 1435 1440 1444 1448 1451 1455 1457
1389 1381 1378 1376 1372 1372 1371 1370 1369 1364 1359 1351 1348 1348 1349 1350 1351 1352 1354 1356 1358 1361 1364 1367 1370 1374 1378 1382 1386 1391 1396 1401 1406 1411 1417 1421 1426 1431 1435 1439 1443 1446 1449 1453
1390 1380 1377 1373 1363 1362 1362 1360 1361 1360 1356 1351 1350 1349 1349 1350 1351 1352 1354 1356 1357 1359 1362 1364 1368 1371 1374 1379 1383 1387 1392 1397 1402 1407 1411 1416 1421 1426 1430 1434 1438 1441 1445 1448
1392 1384 1383 1365 1356 1356 1356 1356 1356 1355 1353 1352 1350 1349 1350 1350 1351 1352 1353 1354 1355 1357 1360 1363 1366 1369 1372 1376 1380 1384 1388 1393 1397 1402 1407 1412 1417 1421 1425 1429 1433 1436 1440 1443
1392 1384 1372 1359 1356 1356 1356 1355 1356 1354 1352 1351 1348 1346 1348 1350 1351 1351 1352 1352 1354 1355 1357 1360 1363 1366 1369 1373 1377 1380 1384 1388 1393 1397 1402 1407 1411 1416 1420 1424 1428 1432 1435 1439
1390 1385 1372 1361 1355 1352 1354 1356 1356 1353 1352 1352 1349 1351 1349 1349 1350 1349 1349 1350 1351 1353 1354 1357 1360 1363 1366 1369 1373 1376 1380 1384 1389 1394 1398 1402 1407 1411 1416 1420 1424 1428 1431 1435
1386 1382 1368 1360 1356 1353 1361 1361 1356 1353 1352 1353 1352 1352 1351 1349 1349 1348 1348 1348 1349 1350 1352 1354 1356 1360 1363 1366 1369 1373 1377 1381 1385 1390 1394 1399 1403 1407 1412 1416 1420 1424 1428 1431
1379 1377 1371 1358 1356 1360 1360 1357 1355 1353 1352 1351 1351 1349 1349 1348 1347 1346 1345 1346 1347 1348 1349 1351 1353 1356 1359 1362 1366 1370 1374 1378 1382 1386 1391 1395 1399 1403 1408 1412 1416 1420 1423 1427
1373 1368 1359 1357 1357 1357 1356 1356 1354 1353 1351 1350 1348 1347 1346 1345 1344 1343 1343 1343 1344 1345 1346 1348 1351 1353 1355 1358 1362 1366 1369 1373 1378 1382 1387 1391 1395 1399 1403 1408 1411 1415 1419 1422
1365 1359 1356 1355 1355 1354 1354 1353 1352 1351 1349 1348 1346 1344 1343 1342 1341 1340 1340 1340 1341 1342 1343 1344 1347 1349 1352 1355 1358 1361 1365 1369 1374 1378 1383 1387 1392 1396 1399 1403 1406 1410 1414 1418
1363 1358 1354 1352 1352 1352 1351 1350 1348 1347 1346 1345 1344 1341 1340 1338 1337 1337 1337 1337 1337 1338 1339 1340 1342 1345 1347 1350 1354 1357 1361 1365 1370 1374 1378 1383 1387 1392 1396 1400 1403 1407 1410 1414
1358 1354 1354 1351 1350 1350 1348 1347 1345 1344 1342 1340 1340 1337 1336 1334 1333 1333 1332 1332 1332 1333 1334 1336 1338 1340 1343 1346 1349 1352 1356 1360 1365 1369 1374 1378 1382 1388 1393 1397 1401 1405 1409 1412
1351 1350 1349 1347 1346 1345 1344 1343 1342 1340 1338 1336 1334 1333 1331 1330 1329 1328 1328 1327 1327 1328 1329 1331 1333 1335 1338 1341 1345 1348 1351 1356 1360 1365 1369 1374 1378 1383 1387 1393 1398 1402 1405 1408
1346 1346 1343 1342 1341 1340 1339 1338 1337 1335 1333 1332 1330 1328 1327 1325 1324 1323 1322 1322 1323 1323 1325 1326 1328 1331 1334 1337 1341 1344 1348 1352 1356 1360 1365 1370 1375 1380 1384 1388 1392 1397 1401 1405
1340 1340 1338 1336 1335 1334 1333 1333 1331 1329 1328 1326 1325 1324 1322 1321 1319 1318 1317 1318 1318 1319 1319 1321 1324 1326 1330 1333 1336 1340 1344 1348 1352 1357 1362 1367 1372 1377 1381 1386 1389 1393 1397 1401
1333 1332 1331 1330 1329 1328 1327 1326 1325 1323 1322 1320 1319 1318 1317 1316 1314 1313 1312 1313 1313 1313 1314 1316 1319 1322 1325 1329 1332 1336 1340 1344 1349 1353 1358 1363 1368 1373 1378 1382 1386 1390 1394 1397
1327 1325 1325 1323 1322 1321 1321 1320 1318 1317 1315 1314 1312 1312 1311 1310 1309 1308 1307 1308 1308 1309 1310 1312 1315 1318 1322 1325 1329 1332 1336 1341 1346 1351 1355 1360 1365 1370 1374 1379 1383 1387 1391 1395
1321 1319 1318 1317 1315 1314 1312 1312 1311 1310 1308 1307 1306 1306 1305 1304 1303 1303 1303 1303 1304 1305 1307 1309 1312 1315 1318 1322 1326 1329 1333 1338 1343 1348 1353 1358 1363 1367 1372 1376 1380 1384 1388 1391
1313 1311 1310 1308 1307 1306 1304 1303 1302 1302 1301 1301 1301 1300 1299 1298 1298 1298 1299 1299 1299 1300 1303 1306 1309 1312 1316 1320 1323 1327 1331 1335 1341 1346 1351 1356 1361 1365 1369 1373 1377 1381 1385 1388
1306 1304 1302 1300 1298 1297 1295 1294 1294 1294 1294 1295 1294 1294 1293 1293 1294 1294 1295 1296 1297 1298 1300 1304 1307 1310 1314 1318 1321 1325 1330 1334 1339 1344 1349 1354 1358 1363 1367 1371 1375 1379 1382 1386
1300 1297 1295 1292 1290 1289 1288 1287 1287 1287 1287 1288 1288 1288 1288 1289 1290 1291 1291 1292 1295 1297 1299 1302 1305 1308 1312 1316 1320 1324 1328 1333 1337 1342 1346 1351 1356 1361 1365 1369 1372 1376 1380 1383
1295 1292 1289 1286 1283 1282 1281 1281 1281 1280 1281 1281 1282 1283 1284 1285 1286 1288 1289 1291 1293 1295 1298 1301 1304 1307 1311 1315 1319 1323 1328 1332 1336 1341 1345 1350 1354 1358 1363 1367 1370 1374 1377 1380
1290 1287 1283 1280 1278 1276 1275 1275 1275 1276 1276 1277 1278 1279 1281 1282 1284 1285 1287 1290 1292 1295 1297 1300 1304 1307 1311 1315 1319 1323 1327 1331 1336 1340 1344 1349 1353 1357 1361 1365 1368 1372 1375 1378
1286 1283 1279 1276 1274 1272 1271 1271 1271 1272 1273 1274 1276 1277 1279 1281 1283 1285 1287 1290 1292 1294 1298 1301 1304 1308 1312 1315 1319 1323 1327 1331 1335 1340 1344 1348 1352 1356 1359 1363 1366 1369 1372 1375
1283 1280 1276 1274 1271 1270 1269 1269 1269 1270 1271 1273 1274 1276 1278 1280 1281 1284 1287 1290 1293 1295 1299 1302 1306 1309 1313 1316 1320 1323 1327 1331 1335 1339 1343 1347 1351 1354 1357 1361 1364 1367 1370 1372
1280 1277 1274 1272 1270 1269 1268 1268 1269 1270 1271 1272 1273 1275 1277 1280 1282 1285 1288 1291 1293 1297 1300 1303 1307 1310 1314 1317 1321 1324 1328 1331 1336 1339 1343 1346 1349 1352 1356 1359 1362 1365 1368 1370
1279 1275 1273 1270 1269 1269 1269 1269 1269 1270 1271 1272 1274 1276 1278 1280 1283 1286 1289 1292 1295 1298 1301 1305 1308 1312 1315 1318 1322 1325 1329 1333 1336 1339 1343 1346 1349 1351 1354 1357 1360 1363 1365 1367